Location: Unspecified
(0.0000°N, 0.0000°E)
Time: 00:28:20
(UTC+00:00)

Vanguard 2 - Visible Passes

Search period start: 28 March 2017 00:00
Search period end: 07 April 2017 00:00
Orbit: 553 x 2940 km, 32.9° (Epoch: 26 March)

Date Brightness Start Highest point End Pass type
(mag) Time Alt. Az. Time Alt. Az. Time Alt. Az.
28 Mar 10.4 18:50:03 10° SSW 19:03:40 31° SSE 19:10:53 18° ESE visible
28 Mar 9.9 21:02:30 10° SW 21:12:21 47° SW 21:12:21 47° SW visible
29 Mar 10.1 19:08:06 10° SW 19:22:52 39° SSE 19:28:29 27° ESE visible
29 Mar 10.1 21:21:06 10° WSW 21:29:57 43° WSW 21:29:57 43° WSW visible
30 Mar 9.7 19:26:13 10° SW 19:41:50 51° SSE 19:46:09 38° ESE visible
30 Mar 10.4 21:40:01 10° WSW 21:47:38 35° W 21:47:38 35° W visible
31 Mar 9.4 19:44:28 10° SW 20:00:36 67° SSE 20:03:55 51° E visible
31 Mar 10.8 21:59:20 10° WSW 22:05:24 26° W 22:05:24 26° W visible
01 Apr 9.3 20:02:55 10° SW 20:19:09 86° SE 20:21:46 63° ENE visible
01 Apr 11.1 22:19:13 10° W 22:23:16 19° W 22:23:16 19° W visible
02 Apr 10.4 18:08:24 10° SW 18:25:08 48° SSE 18:37:27 10° E visible
02 Apr 9.4 20:21:39 10° WSW 20:37:31 73° NW 20:39:41 62° NNE visible
02 Apr 11.4 22:39:51 10° W 22:41:11 12° WNW 22:41:11 12° WNW visible
03 Apr 10.1 18:26:34 10° SW 18:44:00 61° SSE 18:56:10 11° ENE visible
03 Apr 9.8 20:40:44 10° WSW 20:55:45 55° NW 20:57:40 51° N visible
04 Apr 10.0 18:44:53 10° SW 19:02:41 77° SE 19:14:12 13° ENE visible
04 Apr 10.2 21:00:16 10° WSW 21:13:57 40° NW 21:15:42 39° NNW visible
05 Apr 10.0 19:03:25 10° SW 19:21:11 85° NW 19:32:15 15° NE visible
05 Apr 10.5 21:20:21 10° W 21:32:11 29° NW 21:33:45 29° NNW visible
06 Apr 10.2 19:22:16 10° WSW 19:39:35 67° NW 19:50:19 15° NE visible
06 Apr 10.9 21:41:10 10° W 21:50:35 21° NW 21:51:50 21° NNW visible
